Grand Marais, MN

4:51 PM CST on January 17, 2018 (GMT -0600)
Grand Marais

Weather History for KGNA - April, 2013

Change the Weather History Date:

Tuesday, April 30, 2013

  Actual Average (KCKC) Record (KCKC)
Temperature  
Mean Temperature 45 °F -  
Max Temperature 55 °F 51 °F 93 °F (1997)
Min Temperature 37 °F 31 °F 21 °F (2003)
Degree Days  
Heating Degree Days 20    
Moisture  
Dew Point 39 °F    
Average Humidity 84    
Maximum Humidity 97    
Minimum Humidity 52    
Precipitation  
Precipitation 0.51 in - - ()
Sea Level Pressure  
Sea Level Pressure 29.63 in    
Wind  
Wind Speed 8 mph (NE)    
Max Wind Speed 14 mph    
Max Gust Speed 22 mph    
Averages and records for this station are not official NWS values.
T = Trace of Precipitation, MM = Missing Value Source: NWS Daily Summary

Daily Weather History Graph

Daily Weather History Graph

Search for Another Location

Airport or City:

Trip Planner

Search our weather history database for the weather conditions in past years. The results will help you decide how hot, cold, wet, or windy it might be!

Date:

Astronomy

Apr. 30, 2013 Rise Set
Actual Time 5:45 AM CDT 8:12 PM CDT
Civil Twilight 5:10 AM CDT 8:47 PM CDT
Nautical Twilight 4:27 AM CDT 9:30 PM CDT
Astronomical Twilight 3:37 AM CDT 10:21 PM CDT
Moon 12:41 AM CDT (4/30) 10:09 AM CDT (4/30)
Length of Visible Light 15h 36m
Length of Day
14h 27m
Waning Gibbous, 70% of the Moon is Illuminated
Apr 30
Waning Gibbous
May 2
Last Quarter
May 9
New
May 17
First Quarter
May 24
Full

Hourly Weather History & Observations

Time (CDT) Temp. Windchill Dew Point Humidity Pressure Visibility Wind Dir Wind Speed Gust Speed Precip Events Conditions
12:56 AM 37.9 °F 30.9 °F 35.1 °F 89% 29.69 in - ENE 10.4 mph - N/A   Unknown
1:56 AM 37.9 °F 34.4 °F 36.0 °F 93% 29.68 in - NE 4.6 mph - N/A   Unknown
2:56 AM 39.0 °F 34.0 °F 36.0 °F 89% 29.65 in - ENE 6.9 mph - N/A   Unknown
3:56 AM 37.9 °F 32.7 °F 36.0 °F 93% 29.64 in - ENE 6.9 mph - N/A   Unknown
4:56 AM 39.0 °F 32.8 °F 36.0 °F 89% 29.62 in - ENE 9.2 mph - N/A   Unknown
5:56 AM 41.0 °F 37.1 °F 39.0 °F 93% 29.61 in - ENE 5.8 mph - N/A   Unknown
6:56 AM 41.0 °F 35.8 °F 39.0 °F 93% 29.62 in - NE 8.1 mph - N/A   Unknown
7:56 AM 43.0 °F 37.7 °F 42.1 °F 97% 29.59 in - ENE 9.2 mph - 0.05 in   Unknown
8:56 AM 45.0 °F 39.7 °F 43.0 °F 93% 29.51 in - ENE 10.4 mph 19.6 mph 0.11 in   Unknown
9:56 AM 45.0 °F 38.5 °F 42.1 °F 90% 29.49 in - ENE 13.8 mph 21.9 mph 0.35 in   Unknown
10:56 AM 46.9 °F - 44.1 °F 90% 29.48 in - ENE 12.7 mph 20.7 mph N/A   Unknown
11:56 AM 48.0 °F - 46.0 °F 93% 29.47 in - ENE 8.1 mph - N/A   Unknown
12:56 PM 50.0 °F - 46.0 °F 86% 29.49 in - ENE 4.6 mph - N/A   Unknown
1:56 PM 53.1 °F - 46.9 °F 80% 29.53 in - ENE 4.6 mph - N/A   Unknown
2:56 PM 50.0 °F - 45.0 °F 83% 29.55 in - Calm Calm - N/A   Unknown
3:56 PM 48.0 °F - 43.0 °F 83% 29.60 in - WSW 10.4 mph - N/A   Unknown
4:56 PM 46.0 °F 41.0 °F 39.9 °F 79% 29.62 in - WSW 10.4 mph - N/A   Unknown
5:56 PM 43.0 °F 38.8 °F 37.9 °F 82% 29.65 in - WSW 6.9 mph - N/A   Unknown
6:56 PM 44.1 °F 38.6 °F 37.9 °F 79% 29.70 in - WSW 10.4 mph - N/A   Unknown
7:56 PM 42.1 °F 37.1 °F 36.0 °F 79% 29.73 in - WSW 8.1 mph - N/A   Unknown
8:56 PM 43.0 °F 38.8 °F 34.0 °F 71% 29.77 in - WSW 6.9 mph - N/A   Unknown
9:56 PM 41.0 °F 37.1 °F 34.0 °F 76% 29.80 in - WSW 5.8 mph - N/A   Unknown
10:56 PM 48.9 °F - 34.0 °F 56% 29.81 in - West 4.6 mph - N/A   Unknown
11:56 PM 51.1 °F - 34.0 °F 52% 29.79 in - West 6.9 mph - N/A   Unknown